Regional Weather Roundup
Issued by NWS Wakefield, VA

Home | Current Version | Previous Version | Text Only | Print | Product List | Glossary Off
Versions: 1 2 3 4 5 6 7 8 9 10 11 12 13 14 15 16 17 18 19 20 21 22 23 24 25 26 27 28 29 30 31 32 33 34 35 36 37 38 39 40 41 42 43 44 45 46 47 48 49 50

399
ASUS41 KAKQ 261415
RWRAKQ

REGIONAL WEATHER ROUNDUP
NATIONAL WEATHER SERVICE WAKEFIELD VA
1000 AM EDT MON SEP 26 2016

Note: "fair" indicates few or no clouds below 12,000 feet with no
significant weather and/or obstructions to visibility. * = Denotes
station may not report precipitation (e.g., rain,snow,etc.),
thunder or fog.

VAZ042-051-052>054-056-261500-
NORTHERN VIRGINIA

CITY           SKY/WX    TMP DP  RH WIND       PRES   REMARKS
WASH NATIONAL  CLOUDY    68  59  73 S12       30.14S
DULLES         CLOUDY    66  56  70 S8        30.13R
FORT BELVOIR   CLOUDY    66  58  74 SE5       30.13S
QUANTICO       CLOUDY    68  59  73 SW13      30.15R
FREDERICKSBRG* CLOUDY    65  61  85 S5        30.14S
STAFFORD*      CLOUDY    65  60  81 CALM      30.18S
WARRENTON      CLOUDY    66  56  70 S7        30.13R
CULPEPER*      CLOUDY    65  61  89 S6        30.14S
MANASSAS*      CLOUDY    64  59  82 S6        30.13S
LEESBURG*      CLOUDY    66  61  82 S8G20     30.14R
WINCHESTER     CLOUDY    64  59  82 S10       30.10R
FRONT ROYAL*   CLOUDY    64  61  88 CALM      30.09R
LURAY*         CLOUDY    66  63  88 S5        30.10S
$$

VAZ048-049-060>072-079>083-261500-
CENTRAL AND SOUTH CENTRAL VIRGINIA

CITY           SKY/WX    TMP DP  RH WIND       PRES   REMARKS
RICHMOND       NOT AVBL
CHESTERFIELD*  CLOUDY    66  48  52 S7        30.17R
PETERSBURG*    CLOUDY    67  61  82 S5        30.16S
HANOVER        CLOUDY    66  58  75 S5        30.16S
TAPPAHANNOCK*  CLOUDY    67  62  83 CALM      30.16R
QUINTON*       CLOUDY    66  60  81 SE9       30.15R
CHARLOTTSVILLE NOT AVBL
GORDONSVILLE*  NOT AVBL
ORANGE*          N/A     64  63  94 CALM      30.15S
LOUISA*        CLOUDY    66  63  88 S5        30.14R
BUMPASS*       CLOUDY    64  61  88 CALM      30.15R
FARMVILLE*     NOT AVBL
CREWE*         CLOUDY    66  62  85 S6        30.15S
FORT PICKETT*  CLOUDY    66  62  86 SE6       30.15S
CHASE CITY*    CLOUDY    66  63  87 E3        30.14S
CLARKSVILLE*   CLOUDY    64  61  88 CALM      30.14R
SOUTH HILL*    CLOUDY    66  61  84 CALM      30.21R
LAWRENCEVILLE* CLOUDY    66  61  85 SE3       30.15S
EMPORIA*       CLOUDY    64  59  82 CALM      30.17S
$$

VAZ088>098-261500-
SOUTHEAST VIRGINIA

CITY           SKY/WX    TMP DP  RH WIND       PRES   REMARKS
NORFOLK        NOT AVBL
VIRGINIA BEACH MOSUNNY   72  53  51 SE10      30.14R
NORFOLK NAVAL  PTSUNNY   72  55  55 E7        30.16S
WEST POINT*    CLOUDY    69  60  75 CALM      30.17R
SALUDA*        CLOUDY    68  59  73 SE5       30.15S
NEWPORT NEWS   NOT AVBL
LANGLEY AFB    CLOUDY    70  57  62 E9        30.14S
FORT EUSTIS    CLOUDY    69  59  68 SE5       30.13R
WILLIAMSBURG*  SUNNY     72  61  68 SE7       30.17R
HR EXEC AP*    CLOUDY    70  61  73 SE7       30.17S
FRANKLIN*      CLOUDY    67  59  74 SE3       30.16S
US460-WAKEFLD  CLOUDY    67  57  70 VRB5      30.16R
$$

VAZ020-022-025-037-045-261500-
WEST CENTRAL AND SOUTHWEST VIRGINIA

CITY           SKY/WX    TMP DP  RH WIND       PRES   REMARKS
STAUNTON*      CLOUDY    65  60  86 S8        30.13S
WAYNESBORO*    CLOUDY    63  60  90 SE5       30.13S
HOT SPRINGS VA RAIN      50  50 100 S6        30.17R VSB<1/4
LYNCHBURG      NOT AVBL
DANVILLE       NOT AVBL
SOUTH BOSTON*  CLOUDY    66  63  88 SE3       30.14S
MARTINSVILLE   LGT RAIN  64  63  97 SE3       30.16R
ROANOKE        NOT AVBL
BLACKSBURG     CLOUDY    65  65  97 SE6       30.18R
DUBLIN*        CLOUDY    71  67  87 S5        30.16R
MARION*        CLOUDY    67  66  95 CALM      30.18R FOG
HILLSVILLE*    CLOUDY    67  66  97 S7        30.16S
RICHLANDS*     PTSUNNY   71  65  80 SW8       30.14R
WISE*          PTSUNNY   73  55  53 SW16      30.15R
ABINGDON*      PTSUNNY   76  67  73 CALM      30.13R
$$

MDZ021>025-VAZ099-100-261500-
SOUTHERN MARYLAND AND THE DELMARVA PENINSULA

CITY           SKY/WX    TMP DP  RH WIND       PRES   REMARKS
PATUXENT RIVER CLOUDY    69  56  62 S9        30.15R
BAY BRIDGE APT CLOUDY    68  57  68 MISG      30.14F
LEONARDTOWN    CLOUDY    68  59  73 SE5       30.17R
DOVER          MOSUNNY   68  61  78 SE14      30.15F
GEORGETOWN     SUNNY     69  53  56 S8        30.18S
EASTON         CLOUDY    66  55  68 SE8       30.19S
CAMBRIDGE      MOSUNNY   64  54  68 SE7       30.15S
SALISBURY      NOT AVBL
OCEAN CITY     SUNNY     71  50  47 SE9       30.18R
WALLOPS ISLAND MOSUNNY   71  52  50 E9        30.18R
ACCOMACK*      SUNNY     71  51  49 SE7       30.16S
$$

NCZ012>017-030>032-261500-
NORTH CENTRAL AND EASTERN NORTH CAROLINA

CITY           SKY/WX    TMP DP  RH WIND       PRES   REMARKS
ROANOKE RAPIDS CLOUDY    64  61  88 CALM      30.16R
RALEIGH        NOT AVBL
ELIZABETH CITY SUNNY     73  58  59 E9        30.15R
AHOSKIE*       MOSUNNY   65  60  83 CALM      30.16R
EDENTON*       NOT AVBL
CURRITUCK*     SUNNY     72  55  54 E8        30.16R
KILL DEVIL HLS NOT AVBL
MANTEO         PTSUNNY   72  61  67 E8        30.15R
CAPE HATTERAS  NOT AVBL
TARBORO*       CLOUDY    68  63  84 CALM      30.15S
GOLDSBORO      CLOUDY    70  63  80 E6        30.12S
WASHINGTON     PTSUNNY   68  60  75 E6        30.15R
GREENVILLE     CLOUDY    68  61  77 E3        30.16R
NEW BERN       CLOUDY    73  61  65 E6        30.15R
WILMINGTON     NOT AVBL
$$

VAZ048-261500-
ELSEWHERE

CITY           SKY/WX    TMP DP  RH WIND       PRES   REMARKS
HARRISBURG PA  CLOUDY    60  53  77 SE7       30.12F
BALTIMORE      CLOUDY    66  58  75 S7        30.13F
ANNAPOLIS      CLOUDY    68  58  70 S15       30.14S
ANDREWS AFB    CLOUDY    65  59  79 S7        30.13S
PHILADELPHIA   PTSUNNY   66  53  63 VRB3      30.18S
HENDERSON NC   PTSUNNY   63  56  78 S3        30.15R
GREENSBORO     CLOUDY    69  65  86 S9        30.12S
ROCKY MOUNT    CLOUDY    69  61  75 E3        30.15R
$$

VAZ100-261500-
MARINE

STATION/POSITION TIME  TEMP    WIND        PRES    WAVE   SWELL
                       AIR SEA DIR/SP/G            HT/PER HT/PER
                 (UTC) (F)     (DEG/KT/KT) (MB)    (FT/S) (FT/S)
BRANDYWINE LGT   1300   67     170/ 12/ 15   N/A
CAPE MAY NJ      1300   67 72  130/  7/  9 1021.4R
LEWES DE         1300   66 72  170/  4/  5 1021.6R
OCEAN-CITY-INLET 1300   69 72  150/  5/  8 1022.0R
WACHAPREAGUE VA  1300   70 71  100/  5/  8 1021.3R
THOMAS POINT MD  1400   67 74  150/ 19/ 20 1021.5F
GOOSES REEF MD   1400   68 75  160/ 14/ 16 1021.4F   2/ 3
COVE POINT MD    1300   68     180/ 16/ 18 1021.4S
SOLOMONS ISLAND  1300   69 76  170/  9/ 11   N/A
BISHOPS HEAD MD  1300   67 69  120/ 11/ 14 1021.2F
PINEY POINT MD   1300          180/ 11/ 13   N/A
POTOMAC MD       1400   69 75  160/ 12/ 14 1020.3R   1/ 3
CAMBRIDGE MD     1300   63 75  130/  5/  7 1020.4S
LEWISETTA VA     1300   67 74  180/  5/  6 1020.5S
RAPPAHANNOCK LGT 1300          100/  9/ 10 1021.2F
STINGRAY PT      1400   70 76   80/ 10/ 12 1021.6R   1/ 2
YORK RVR RNG VA  1300   70     130/ 11/ 12 1020.3F
YORKTOWN VA      1300   68 76  170/  3/  4 1020.4S
JAMESTOWN VA     1400   69 77  160/  8/ 12   N/A
DOMINION TERM VA 1300   69     110/  8/ 10 1020.8S
KIPTOPEKE VA     1300      76  110/  8/ 10   N/A
CHES BAY BRIDGE  1300   71 76   80/  9/ 11 1020.6S
CAPE HENRY VA    1300   70     100/ 12/ 14   N/A
WILLOUBY STN VA  1300   70     130/ 10/ 11   N/A
CAPE HENRY BUOY  1312      76                N/A     3/ 9
1ST LANDING BUOY 1400   71 75  120/ 12/ 14 1020.7R   2/ 4
CAPE CHARLES BUO 1326      76                N/A     3/ 9
OFFSHORE WE BUOY 1321      75                N/A     3/ 9
64NM E OF VA BCH 1350   72 74  100/  6/ 10 1020.8R   3/ 9   3/ 9
DUCK PIER NC     1300   71 76   60/  7/ 10 1020.2R
44056 DUCK FRF   1311      76                N/A     3/ 9
OREGON INLET NC  1300   72 75   40/  7/ 11 1020.2F
HATTERAS NC      1300   73 76   50/  8/ 11 1019.6F
DIAMOND SHLS NC  1350   75 80   60/ 12/ 14 1019.5R   3/ 9   2/ 9
CAPE LOOKOUT NC  1400   74      40/ 15/ 17 1019.6R
$$




USA.gov is the U.S. government's official web portal to all federal, state and local government web resources and services.